Location: Unspecified
(0.0000°N, 0.0000°E)
Time: 22:35:01
(UTC+01:00)

AO-40 - Visible Passes

Search period start: 30 January 2015 00:00
Search period end: 09 February 2015 00:00
Orbit: 1083 x 58738 km, 8.9° (Epoch: 28 January)

Date Brightness Start Highest point End Pass type
(mag) Time Alt. Az. Time Alt. Az. Time Alt. Az.
30 Jan ? 12:37:26 10° E 23:32:33 75° N 23:33:38 75° N visible
01 Feb ? 14:50:50 10° WSW 09:45:38 64° S 00:05:52 10° W visible
03 Feb ? 04:33:44 56° E 04:33:44 56° E 04:37:42 10° E visible
03 Feb ? 12:28:22 10° E 23:01:11 75° N 23:08:32 72° NNE visible
05 Feb ? 14:22:22 10° WSW 09:17:24 63° S 23:59:18 10° W visible
07 Feb ? 04:07:43 29° E 04:07:43 29° E 04:09:58 10° E visible
07 Feb ? 12:19:17 10° E 22:28:47 76° N 22:43:20 65° NE visible
